Other Surface Observations
Issued by NWS

Home | Current Version | Previous Version | Text Only | Print | Product List | Glossary On
Versions: 1 2 3 4 5 6 7 8 9 10 11 12 13 14 15 16 17 18 19 20 21 22 23 24 25 26 27 28 29 30 31 32 33 34 35 36 37 38 39 40 41 42 43 44 45 46 47 48 49 50
745
SXUS52 KTAE 202219
OSOTAE
OSOTAE
North Florida/South Alabama/Southwest Georgia Weather Roundup
National Weather Service Tallahassee Florida
600 PM EDT WED SEP 20 2017

Note: "fair" indicates few or no clouds below 12,000 feet with no
significant weather and/or obstructions to visibility.

!FLZ017-115-028-034-025-202300
...North Florida...

CITY           SKY/WX    TMP DP  RH WIND       PRES   REMARKS
TALLAHASSEE    TSTM      82  77  84 SW7       29.96S HX  90
APALACHICOLA   MOSUNNY   80  76  87 NE3       29.98S
PERRY          MOSUNNY   80  72  77 CALM      29.96F
CROSS CITY     PTSUNNY   87  71  59 W8        30.00S HX  92
JACKSONVILLE   MOSUNNY   86  68  54 SE14      29.95S
$$

!FLZ112-006-005-002-011-202300
...Florida Panhandle...

CITY           SKY/WX    TMP DP  RH WIND       PRES   REMARKS
MARIANNA       CLOUDY    87  73  62 NW3       29.95S HX  94
BONIFAY        NOT AVBL
PANAMA CITY NW FAIR      85  74  69 SE6       29.95F HX  92
TYNDALL AFB    MOSUNNY   85  73  66 SW8       29.96F HX  92
TYND DRONE APT MOCLDY    85  75  72 SW5       29.96F HX  92
DE FUNIAK SPR  FAIR      79  74  82 CALM      29.97F
EGLIN AFB      MOSUNNY   84  71  65 W6        29.95F
DESTIN         MOSUNNY   88  74  63 VRB6      29.95F HX  96
HURLBURT       MOSUNNY   86  66  51 W7        29.95F
CRESTVIEW      CLOUDY    81  70  69 NW6       29.98F
PENSACOLA      MOSUNNY   86  73  65 E3        29.96F HX  93
$$

!ALZ063-066-202300
...South Alabama...

CITY           SKY/WX    TMP DP  RH WIND       PRES   REMARKS
DOTHAN         MOSUNNY   88  73  61 N3        29.99F HX  95
OZARK CAIRNS   PTSUNNY   87  73  62 CALM      29.95F HX  94
FT RUCKER HELI MOSUNNY   84  76  77 CALM      29.95F HX  93
RUCKER HELI 3  FAIR      87  71  58 CALM      29.96S HX  93
RUCKER HELI 2  FAIR      84  74  70 CALM      29.94F HX  91
FLORALA APT    NOT AVBL
ANDALUSIA      CLOUDY    85  73  67 NW6       29.96F HX  91
TROY           MOSUNNY   87  72  60 N7        29.97F HX  93
EUFALA         FAIR      90  72  55 NW5       29.95F HX  97
MOBILE         CLOUDY    86  74  67 SW6       29.97S HX  94
$$

!GAZ120>161-202300
...Southwest and South Central Georgia...

CITY           SKY/WX    TMP DP  RH WIND       PRES   REMARKS
THOMASVILLE    FAIR      90  73  58 SW5       29.98R HX  98
BAINBRIDGE     MOSUNNY   90  77  66 W7        29.95F HX 102
MOODY AFB      MOSUNNY   88  73  60 W6        29.96R HX  94
VALDOSTA       PTSUNNY   86  73  65 CALM      29.96R HX  93
MOULTRIE       MOSUNNY   90  70  51 NW5       29.97R HX  95
BLAKELY        MOSUNNY   90  72  55 CALM      29.95F HX  96
ALBANY         MOSUNNY   91  70  49 W8        29.96S HX  96
TIFTON         FAIR      76  69  79 E6        29.98R
FITZGERALD     FAIR      82  72  71 S3        30.00R
CORDELE        FAIR      92  69  45 NW5       29.96S HX  97
AMERICUS       FAIR      90  63  40 NW5       29.98S HX  90
HOMERVILLE     FAIR      86  72  62 CALM      29.96R HX  92
$$

!GMZ750-755-770-775-202300
...Coastal and Buoy Obs...

STATION/POSITION TIME  TEMP    WIND        PRES    VSBY  WAVE
                       AIR SEA DIR/SP/G                  HT/PER
                 (UTC) (F)     (DEG/KT/KT) (MB)    (MI)  (FT/S)
KEATON BEACH     2200   82     300/  7/  8 1014.3F
CEDAR KEY        2200   85     300/  7/  9 1014.8F
C TOWER          2200   81                 1015.5F
APALACHICOLA BUO 2150   82 83   50/  6/  8 1014.9R         1
PANAMA CITY BUOY 2150   83 84   40/  4/  6 1015.0S         0
MOBILE BUOY      2200   83 85  170/  2/  4 1015.1
ORANGE BCH AL BU 2150   83 86  240/  6/  8 1014.5F         1
$$




USA.gov is the U.S. government's official web portal to all federal, state and local government web resources and services.